"datetime","# probes","# resolvers","can_ipv6","can_ipv6_prbs","can_tcp","can_tcp_prbs","can_tcp6","can_tcp6_prbs","does_ecs","does_ecs_prbs","does_flagday","does_flagday_prbs","does_rov4","does_rov4_prbs","does_rov6","does_rov6_prbs","does_qnamemin","doesnt_qnamemin","does_qnamemin_prbs","doesnt_qnamemin_prbs","does_nxdomain","doesnt_nxdomain","does_nxdomain_prbs","doesnt_nxdomain_prbs","has_ta_19036","hasnt_ta_19036","has_ta_19036_prbs","hasnt_ta_19036_prbs","has_ta_20326","hasnt_ta_20326","has_ta_20326_prbs","hasnt_ta_20326_prbs","can_rsamd5","cannot_rsamd5","broken_rsamd5","can_rsamd5_prbs","cannot_rsamd5_prbs","broken_rsamd5_prbs","can_dsa","cannot_dsa","broken_dsa","can_dsa_prbs","cannot_dsa_prbs","broken_dsa_prbs","can_rsasha1","cannot_rsasha1","broken_rsasha1","can_rsasha1_prbs","cannot_rsasha1_prbs","broken_rsasha1_prbs","can_dsansec3","cannot_dsansec3","broken_dsansec3","can_dsansec3_prbs","cannot_dsansec3_prbs","broken_dsansec3_prbs","can_rsansec3","cannot_rsansec3","broken_rsansec3","can_rsansec3_prbs","cannot_rsansec3_prbs","broken_rsansec3_prbs","can_rsasha256","cannot_rsasha256","broken_rsasha256","can_rsasha256_prbs","cannot_rsasha256_prbs","broken_rsasha256_prbs","can_rsasha512","cannot_rsasha512","broken_rsasha512","can_rsasha512_prbs","cannot_rsasha512_prbs","broken_rsasha512_prbs","can_eccgost","cannot_eccgost","broken_eccgost","can_eccgost_prbs","cannot_eccgost_prbs","broken_eccgost_prbs","can_ecdsa256","cannot_ecdsa256","broken_ecdsa256","can_ecdsa256_prbs","cannot_ecdsa256_prbs","broken_ecdsa256_prbs","can_ecdsa384","cannot_ecdsa384","broken_ecdsa384","can_ecdsa384_prbs","cannot_ecdsa384_prbs","broken_ecdsa384_prbs","can_ed25519","cannot_ed25519","broken_ed25519","can_ed25519_prbs","cannot_ed25519_prbs","broken_ed25519_prbs","can_ed448","cannot_ed448","broken_ed448","can_ed448_prbs","cannot_ed448_prbs","broken_ed448_prbs","can_gost","cannot_gost","broken_gost","can_gost_prbs","cannot_gost_prbs","broken_gost_prbs","can_sha384","cannot_sha384","broken_sha384","can_sha384_prbs","cannot_sha384_prbs","broken_sha384_prbs","is_internal","is_forwarding","is_external","is_internal_prbs","is_forwarding_prbs","is_external_prbs"
2017-06-20T23:59:33Z,22,32,26,19,32,22,24,18,4,5,0,0,0,0,0,0,0,32,0,22,0,32,0,22,0,0,0,0,0,0,0,0,16,16,0,11,12,2,32,0,0,22,5,0,32,0,0,22,3,0,31,1,0,21,6,0,32,0,0,22,3,0,32,0,0,22,3,0,32,0,0,22,3,0,20,12,0,14,12,0,31,1,0,21,4,0,31,1,0,21,4,0,0,32,0,0,22,0,0,32,0,0,22,0,21,11,0,15,9,0,31,1,0,21,4,0,10,18,4,7,14,5
2017-06-21T23:59:35Z,22,32,26,19,32,22,24,18,4,4,0,0,0,0,0,0,0,32,0,22,0,32,0,22,0,0,0,0,0,0,0,0,16,15,1,11,11,3,32,0,0,22,5,0,32,0,0,22,3,0,32,0,0,22,5,0,31,0,1,21,3,1,31,0,1,21,3,1,31,0,1,21,3,1,20,11,1,14,11,1,30,1,1,20,4,1,30,1,1,20,4,1,0,31,1,0,21,1,0,31,1,0,21,1,21,11,0,15,9,0,31,1,0,21,4,0,10,18,4,7,14,5
2017-06-22T23:59:34Z,23,33,27,20,33,23,27,20,4,5,0,0,0,0,0,0,0,33,0,23,0,33,0,23,0,0,0,0,0,0,0,0,16,16,1,11,12,3,33,0,0,23,5,0,33,0,0,23,3,0,32,1,0,22,6,0,32,0,1,22,3,1,32,0,1,22,3,1,32,0,1,22,3,1,20,12,1,14,12,1,31,1,1,21,4,1,31,1,1,21,4,1,0,32,1,0,22,1,0,32,1,0,22,1,22,11,0,16,9,0,31,1,1,21,4,1,10,19,4,7,15,5
2017-06-23T23:59:35Z,22,32,26,19,32,22,26,19,4,4,0,0,0,0,0,0,0,32,0,22,0,32,0,22,0,0,0,0,0,0,0,0,16,16,0,11,12,2,32,0,0,22,5,0,32,0,0,22,3,0,31,1,0,21,6,0,32,0,0,22,3,0,32,0,0,22,3,0,32,0,0,22,3,0,20,12,0,14,12,0,31,1,0,21,4,0,31,1,0,21,4,0,0,32,0,0,22,0,0,32,0,0,22,0,21,11,0,15,9,0,31,1,0,21,4,0,10,18,4,7,14,5
2017-06-24T23:59:33Z,22,32,26,19,32,22,25,18,5,6,0,0,0,0,0,0,0,32,0,22,0,32,0,22,0,0,0,0,0,0,0,0,16,15,1,11,11,3,32,0,0,22,5,0,32,0,0,22,3,0,31,0,1,21,5,1,32,0,0,22,3,0,31,0,1,21,3,1,31,0,1,21,3,1,20,11,1,14,11,1,30,1,1,20,4,1,30,1,1,20,4,1,0,31,1,0,21,1,0,31,1,0,21,1,20,11,1,14,9,1,30,1,1,20,4,1,10,18,4,7,14,5
2017-06-25T23:59:34Z,23,33,27,20,33,23,26,19,4,4,0,0,0,0,0,0,0,33,0,23,0,33,0,23,0,0,0,0,0,0,0,0,16,16,1,11,13,3,33,0,0,23,6,0,33,0,0,23,4,0,32,1,0,22,7,0,32,0,1,22,4,1,32,0,1,22,4,1,32,0,1,22,4,1,20,12,1,14,13,1,31,1,1,21,5,1,31,1,1,21,5,1,0,32,1,0,22,1,0,32,1,0,22,1,21,11,1,15,10,1,32,1,0,22,5,0,10,19,4,8,15,5
2017-06-26T23:59:33Z,23,32,26,20,32,23,25,19,5,6,0,0,0,0,0,0,0,32,0,23,0,32,0,23,0,0,0,0,0,0,0,0,16,16,0,12,14,2,32,0,0,23,7,0,32,0,0,23,5,0,31,1,0,22,8,0,32,0,0,23,5,0,32,0,0,23,5,0,32,0,0,23,5,0,20,12,0,15,14,0,31,1,0,22,6,0,31,1,0,22,6,0,0,32,0,0,23,0,0,32,0,0,23,0,21,11,0,16,11,0,31,1,0,22,6,0,10,18,4,8,14,5
2017-06-27T23:59:33Z,23,32,26,20,32,23,26,20,5,5,0,0,0,0,0,0,0,32,0,23,0,32,0,23,0,0,0,0,0,0,0,0,16,16,0,12,14,2,32,0,0,23,7,0,32,0,0,23,5,0,31,1,0,22,8,0,32,0,0,23,5,0,32,0,0,23,5,0,32,0,0,23,5,0,20,12,0,15,14,0,31,1,0,22,6,0,31,1,0,22,6,0,0,32,0,0,23,0,0,32,0,0,23,0,21,11,0,16,11,0,31,1,0,22,6,0,10,18,4,8,14,5
2017-06-28T23:59:33Z,23,32,26,20,32,23,26,20,5,6,0,0,0,0,0,0,0,32,0,23,0,32,0,23,0,0,0,0,0,0,0,0,16,15,1,12,13,3,32,0,0,23,7,0,32,0,0,23,5,0,32,0,0,23,7,0,32,0,0,23,5,0,32,0,0,23,5,0,32,0,0,23,5,0,20,12,0,15,14,0,31,1,0,22,6,0,30,1,1,21,6,1,0,31,1,0,22,1,0,31,1,0,22,1,20,11,1,15,11,1,31,1,0,22,6,0,10,18,4,8,14,5
2017-06-29T23:59:32Z,22,32,25,19,32,22,24,18,5,5,0,0,0,0,0,0,0,32,0,22,0,31,0,22,0,0,0,0,0,0,0,0,16,16,0,12,13,2,32,0,0,22,7,0,32,0,0,22,5,0,31,1,0,21,8,0,32,0,0,22,5,0,32,0,0,22,5,0,32,0,0,22,5,0,19,13,0,14,14,0,31,1,0,21,6,0,31,1,0,21,6,0,0,32,0,0,22,0,0,32,0,0,22,0,20,12,0,15,11,0,31,1,0,21,6,0,9,19,4,7,14,5
2017-06-30T23:59:35Z,23,34,27,20,34,23,26,20,5,6,0,0,0,0,0,0,0,34,0,23,0,33,0,23,0,0,0,0,0,0,0,0,16,17,1,12,13,3,34,0,0,23,7,0,34,0,0,23,5,0,34,0,0,23,7,0,34,0,0,23,5,0,34,0,0,23,5,0,34,0,0,23,5,0,21,13,0,15,14,0,33,1,0,22,6,0,32,1,1,21,6,1,0,33,1,0,22,1,0,33,1,0,22,1,21,12,1,15,11,1,33,1,0,22,6,0,9,21,4,7,15,5
2017-07-01T23:59:33Z,23,34,27,20,34,23,26,19,5,6,0,0,0,0,0,0,0,34,0,23,0,33,0,23,0,0,0,0,0,0,0,0,16,17,1,12,13,3,34,0,0,23,7,0,33,0,1,22,5,1,33,0,1,22,7,1,34,0,0,23,5,0,34,0,0,23,5,0,34,0,0,23,5,0,21,13,0,15,14,0,33,1,0,22,6,0,32,1,1,21,6,1,0,33,1,0,22,1,0,33,1,0,22,1,21,12,1,15,11,1,32,1,1,21,6,1,9,21,4,7,15,5
2017-07-02T23:59:33Z,23,34,27,20,34,23,27,20,5,5,0,0,0,0,0,0,0,34,0,23,0,33,0,23,0,0,0,0,0,0,0,0,16,16,2,12,12,4,34,0,0,23,6,0,34,0,0,23,4,0,34,0,0,23,6,0,34,0,0,23,4,0,34,0,0,23,4,0,34,0,0,23,4,0,22,12,0,16,13,0,33,1,0,22,5,0,32,1,1,21,5,1,0,33,1,0,22,1,0,33,1,0,22,1,22,11,1,16,10,1,32,1,1,21,5,1,9,22,3,7,15,4
2017-07-03T23:59:33Z,23,34,27,20,34,23,26,19,5,5,0,0,0,0,0,0,0,34,0,23,0,33,0,23,0,0,0,0,0,0,0,0,16,17,1,12,13,3,34,0,0,23,6,0,34,0,0,23,4,0,32,1,1,21,7,1,33,0,1,22,4,1,34,0,0,23,4,0,33,0,1,22,4,1,21,13,0,15,14,0,33,1,0,22,5,0,32,1,1,21,5,1,0,33,1,0,22,1,0,34,0,0,23,0,22,11,1,16,10,1,33,1,0,22,5,0,9,22,3,7,15,4
2017-07-04T23:59:33Z,22,33,26,19,33,22,26,19,4,4,0,0,0,0,0,0,0,33,0,22,0,32,0,22,0,0,0,0,0,0,0,0,15,17,1,11,13,3,33,0,0,22,6,0,32,0,1,21,4,1,32,1,0,21,7,0,33,0,0,22,4,0,33,0,0,22,4,0,32,0,1,21,4,1,20,13,0,14,14,0,32,1,0,21,5,0,31,1,1,20,5,1,1,32,0,1,21,0,0,33,0,0,22,0,22,11,0,16,10,0,31,1,1,20,5,1,9,21,3,7,14,4
2017-07-05T23:59:35Z,22,33,25,18,33,22,25,18,4,4,0,0,0,0,0,0,0,33,0,22,0,32,0,22,0,0,0,0,0,0,0,0,17,16,0,13,12,2,33,0,0,22,6,0,33,0,0,22,4,0,32,1,0,21,7,0,33,0,0,22,4,0,33,0,0,22,4,0,33,0,0,22,4,0,21,12,0,15,13,0,32,1,0,21,5,0,32,1,0,21,5,0,0,33,0,0,22,0,0,33,0,0,22,0,22,11,0,16,10,0,32,1,0,21,5,0,10,20,3,8,13,4
2017-07-06T23:59:34Z,24,35,27,20,35,24,26,20,5,6,0,0,0,0,0,0,0,35,0,24,0,34,0,24,0,0,0,0,0,0,0,0,16,18,1,12,14,4,35,0,0,24,7,0,34,0,1,23,4,1,34,0,1,23,7,1,34,0,1,23,4,1,35,0,0,24,4,0,35,0,0,24,4,0,24,11,0,18,13,0,33,1,1,22,5,1,34,1,0,23,5,0,0,34,1,0,23,1,0,35,0,0,24,0,24,11,0,18,10,0,34,1,0,23,5,0,11,21,3,9,14,5
2017-07-07T23:59:33Z,24,35,27,20,35,24,24,19,4,4,0,0,0,0,0,0,0,35,0,24,0,34,0,24,0,0,0,0,0,0,0,0,18,16,1,13,13,3,35,0,0,24,6,0,35,0,0,24,4,0,34,1,0,23,7,0,34,1,0,23,5,0,33,1,1,22,5,1,34,1,0,23,5,0,22,13,0,16,14,0,32,2,1,21,6,1,33,2,0,22,6,0,0,34,1,0,23,1,1,34,0,1,23,0,23,11,1,17,10,1,33,2,0,22,6,0,11,21,3,9,14,4
2017-07-08T23:59:34Z,24,35,27,20,35,24,26,20,4,4,0,0,0,0,0,0,0,35,0,24,0,34,0,24,0,0,0,0,0,0,0,0,19,16,0,14,13,2,35,0,0,24,7,0,35,0,0,24,5,0,35,0,0,24,7,0,35,0,0,24,5,0,35,0,0,24,5,0,35,0,0,24,5,0,23,12,0,17,13,0,34,1,0,23,6,0,34,1,0,23,6,0,0,35,0,0,24,0,0,35,0,0,24,0,23,12,0,17,11,0,34,1,0,23,6,0,11,20,4,9,14,5
2017-07-09T23:59:34Z,25,36,27,20,36,25,26,20,4,5,0,0,0,0,0,0,0,36,0,25,0,35,0,25,0,0,0,0,0,0,0,0,18,17,1,13,14,3,36,0,0,25,7,0,36,0,0,25,5,0,36,0,0,25,7,0,36,0,0,25,5,0,35,0,1,24,5,1,36,0,0,25,5,0,22,14,0,16,15,0,34,1,1,23,6,1,34,1,1,23,6,1,1,35,0,1,24,0,1,35,0,1,24,0,23,13,0,17,12,0,35,1,0,24,6,0,11,21,4,9,15,5
2017-07-10T23:59:32Z,24,35,26,19,35,24,23,18,4,4,0,0,0,0,0,0,0,35,0,24,0,34,0,24,0,0,0,0,0,0,0,0,18,17,0,13,14,2,35,0,0,24,7,0,35,0,0,24,5,0,35,0,0,24,7,0,35,0,0,24,5,0,35,0,0,24,5,0,35,0,0,24,5,0,22,13,0,16,14,0,34,1,0,23,6,0,34,1,0,23,6,0,0,35,0,0,24,0,0,35,0,0,24,0,22,13,0,16,12,0,34,1,0,23,6,0,11,20,4,9,14,5
2017-07-11T23:59:32Z,23,33,26,19,33,23,26,19,4,5,0,0,0,0,0,0,0,33,0,23,0,33,0,23,0,0,0,0,0,0,0,0,16,17,0,12,14,2,33,0,0,23,7,0,33,0,0,23,5,0,33,0,0,23,7,0,33,0,0,23,5,0,33,0,0,23,5,0,33,0,0,23,5,0,22,11,0,16,13,0,32,1,0,22,6,0,32,1,0,22,6,0,0,33,0,0,23,0,0,33,0,0,23,0,22,11,0,16,11,0,32,1,0,22,6,0,11,18,4,9,13,5
2017-07-12T23:59:35Z,25,35,28,21,35,25,28,21,6,7,0,0,0,0,0,0,0,35,0,25,0,35,0,25,0,0,0,0,0,0,0,0,16,18,1,12,15,3,35,0,0,25,7,0,34,0,1,24,5,1,34,1,0,24,8,0,35,0,0,25,5,0,35,0,0,25,5,0,34,0,1,24,5,1,22,13,0,16,15,0,34,1,0,24,6,0,33,1,1,23,6,1,1,34,0,1,24,0,0,34,1,0,24,1,24,11,0,18,11,0,33,1,1,23,6,1,11,20,4,9,15,5
2017-07-13T23:59:34Z,23,33,26,19,33,23,25,19,3,4,0,0,0,0,0,0,0,33,0,23,0,33,0,23,0,0,0,0,0,0,0,0,16,17,0,12,15,1,33,0,0,23,6,0,33,0,0,23,5,0,32,1,0,22,7,0,33,0,0,23,5,0,33,0,0,23,5,0,33,0,0,23,5,0,21,12,0,15,13,0,32,1,0,22,6,0,32,1,0,22,6,0,0,33,0,0,23,0,0,33,0,0,23,0,22,11,0,16,11,0,32,1,0,22,6,0,11,18,4,9,13,4
2017-07-14T23:59:33Z,23,33,26,19,33,23,24,18,3,3,0,0,0,0,0,0,0,33,0,23,0,33,0,23,0,0,0,0,0,0,0,0,17,15,1,12,13,2,33,0,0,23,6,0,33,0,0,23,5,0,33,0,0,23,6,0,33,0,0,23,5,0,32,0,1,22,5,1,33,0,0,23,5,0,21,11,1,15,12,1,32,1,0,22,6,0,32,1,0,22,6,0,0,32,1,0,22,1,0,32,1,0,22,1,21,11,1,15,11,1,32,1,0,22,6,0,11,18,4,9,13,4
2017-07-15T23:59:34Z,23,33,26,19,33,23,23,17,4,4,0,0,0,0,0,0,0,33,0,23,0,33,0,23,0,0,0,0,0,0,0,0,16,17,0,12,14,1,33,0,0,23,7,0,33,0,0,23,6,0,32,1,0,22,8,0,33,0,0,23,6,0,33,0,0,23,6,0,33,0,0,23,6,0,21,12,0,15,13,0,32,1,0,22,7,0,32,1,0,22,7,0,0,33,0,0,23,0,0,33,0,0,23,0,22,11,0,16,11,0,32,1,0,22,7,0,11,18,4,10,13,4
2017-07-16T23:59:34Z,23,32,25,19,32,23,25,19,3,5,0,0,0,0,0,0,0,32,0,23,0,32,0,23,0,0,0,0,0,0,0,0,15,16,1,11,14,2,32,0,0,23,7,0,31,0,1,22,6,1,32,0,0,23,7,0,32,0,0,23,6,0,31,0,1,22,6,1,32,0,0,23,6,0,22,10,0,16,12,0,30,1,1,21,7,1,30,1,1,21,7,1,0,31,1,0,22,1,0,31,1,0,22,1,22,10,0,16,11,0,30,1,1,21,7,1,11,17,4,10,13,4
2017-07-17T23:59:35Z,22,31,24,18,31,22,23,17,2,4,0,0,0,0,0,0,0,31,0,22,0,31,0,22,0,0,0,0,0,0,0,0,15,16,0,11,14,1,31,0,0,22,7,0,31,0,0,22,6,0,31,0,0,22,7,0,31,0,0,22,6,0,31,0,0,22,6,0,31,0,0,22,6,0,21,10,0,15,12,0,30,1,0,21,7,0,30,1,0,21,7,0,0,31,0,0,22,0,0,31,0,0,22,0,21,10,0,15,11,0,30,1,0,21,7,0,11,16,4,10,12,4
2017-07-18T23:59:35Z,22,31,24,18,31,22,24,18,2,3,0,0,0,0,0,0,0,31,0,22,0,31,0,22,0,0,0,0,0,0,0,0,15,16,0,11,14,1,31,0,0,22,7,0,31,0,0,22,6,0,31,0,0,22,7,0,31,0,0,22,6,0,31,0,0,22,6,0,31,0,0,22,6,0,21,10,0,15,12,0,30,1,0,21,7,0,30,1,0,21,7,0,0,31,0,0,22,0,0,31,0,0,22,0,21,10,0,15,11,0,30,1,0,21,7,0,11,16,4,10,12,4
2017-07-19T23:59:34Z,24,33,26,20,33,24,26,20,4,6,0,0,0,0,0,0,0,33,0,24,0,33,0,24,0,0,0,0,0,0,0,0,15,17,1,11,15,2,33,0,0,24,7,0,33,0,0,24,6,0,33,0,0,24,7,0,32,0,1,23,6,1,33,0,0,24,6,0,32,0,1,23,6,1,21,12,0,15,14,0,31,1,1,22,7,1,31,1,1,22,7,1,0,32,1,0,23,1,0,32,1,0,23,1,22,10,1,16,11,1,31,1,1,22,7,1,11,18,4,10,14,4
2017-07-20T23:59:33Z,23,32,25,19,32,23,24,18,3,4,0,0,0,0,0,0,0,32,0,23,0,32,0,23,0,0,0,0,0,0,0,0,15,16,1,11,14,2,32,0,0,23,7,0,31,0,1,22,6,1,31,0,1,22,7,1,31,0,1,22,6,1,32,0,0,23,6,0,31,0,1,22,6,1,22,10,0,16,12,0,30,1,1,21,7,1,31,1,0,22,7,0,0,31,1,0,22,1,0,32,0,0,23,0,21,10,1,15,11,1,30,1,1,21,7,1,11,17,4,10,13,4
2017-07-21T23:59:35Z,22,31,24,18,31,22,24,18,2,4,0,0,0,0,0,0,0,31,0,22,0,31,0,22,0,0,0,0,0,0,0,0,15,16,0,11,14,1,31,0,0,22,7,0,31,0,0,22,6,0,31,0,0,22,7,0,31,0,0,22,6,0,31,0,0,22,6,0,31,0,0,22,6,0,21,10,0,15,12,0,30,1,0,21,7,0,30,1,0,21,7,0,0,31,0,0,22,0,0,31,0,0,22,0,21,10,0,15,11,0,30,1,0,21,7,0,11,16,4,10,12,4
2017-07-22T23:59:34Z,22,31,24,18,31,22,24,18,3,4,0,0,0,0,0,0,0,31,0,22,0,31,0,22,0,0,0,0,0,0,0,0,15,16,0,11,14,1,31,0,0,22,6,0,31,0,0,22,5,0,30,1,0,21,7,0,31,0,0,22,5,0,31,0,0,22,5,0,31,0,0,22,5,0,21,10,0,15,12,0,30,1,0,21,6,0,30,1,0,21,6,0,0,31,0,0,22,0,0,31,0,0,22,0,22,9,0,16,10,0,30,1,0,21,6,0,11,17,3,10,12,3
2017-07-23T23:59:34Z,22,31,24,18,31,22,24,18,2,3,0,0,0,0,0,0,0,31,0,22,0,31,0,22,0,0,0,0,0,0,0,0,15,16,0,11,14,1,31,0,0,22,6,0,31,0,0,22,5,0,30,1,0,21,7,0,31,0,0,22,5,0,31,0,0,22,5,0,31,0,0,22,5,0,21,10,0,15,12,0,30,1,0,21,6,0,30,1,0,21,6,0,0,31,0,0,22,0,0,31,0,0,22,0,22,9,0,16,10,0,30,1,0,21,6,0,11,17,3,10,12,3
2017-07-24T23:59:35Z,22,31,24,18,31,22,24,18,3,4,0,0,0,0,0,0,0,31,0,22,0,31,0,22,0,0,0,0,0,0,0,0,15,15,1,11,13,2,31,0,0,22,6,0,31,0,0,22,5,0,31,0,0,22,6,0,31,0,0,22,5,0,31,0,0,22,5,0,30,0,1,21,5,1,21,10,0,15,12,0,29,1,1,20,6,1,29,1,1,20,6,1,0,30,1,0,21,1,0,30,1,0,21,1,22,9,0,16,10,0,29,1,1,20,6,1,11,17,3,10,12,3
2017-07-25T23:59:35Z,22,31,24,18,31,22,23,17,2,3,0,0,0,0,0,0,0,31,0,22,0,31,0,22,0,0,0,0,0,0,0,0,15,15,1,11,13,2,31,0,0,22,6,0,31,0,0,22,5,0,30,1,0,21,7,0,31,0,0,22,5,0,31,0,0,22,5,0,31,0,0,22,5,0,21,10,0,15,12,0,30,1,0,21,6,0,30,1,0,21,6,0,0,31,0,0,22,0,0,31,0,0,22,0,22,9,0,16,10,0,30,1,0,21,6,0,11,17,3,10,12,3
2017-07-26T23:59:35Z,21,30,23,17,30,21,23,17,2,3,0,0,0,0,0,0,0,30,0,21,0,30,0,21,0,0,0,0,0,0,0,0,15,15,0,11,13,1,30,0,0,21,6,0,30,0,0,21,5,0,30,0,0,21,6,0,30,0,0,21,5,0,30,0,0,21,5,0,30,0,0,21,5,0,21,9,0,15,11,0,29,1,0,20,6,0,29,1,0,20,6,0,0,30,0,0,21,0,0,30,0,0,21,0,21,9,0,15,10,0,29,1,0,20,6,0,11,16,3,10,11,3
2017-07-27T23:59:33Z,21,30,23,17,30,21,23,17,2,3,0,0,0,0,0,0,0,30,0,21,0,30,0,21,0,0,0,0,0,0,0,0,15,15,0,11,13,1,30,0,0,21,6,0,30,0,0,21,5,0,30,0,0,21,6,0,30,0,0,21,5,0,30,0,0,21,5,0,30,0,0,21,5,0,21,9,0,15,11,0,29,1,0,20,6,0,29,1,0,20,6,0,0,30,0,0,21,0,0,30,0,0,21,0,21,9,0,15,10,0,29,1,0,20,6,0,11,16,3,10,11,3
2017-07-28T23:59:34Z,22,31,24,18,31,22,24,18,3,4,0,0,0,0,0,0,0,31,0,22,0,31,0,22,0,0,0,0,0,0,0,0,15,16,0,11,14,1,31,0,0,22,6,0,31,0,0,22,5,0,30,1,0,21,7,0,31,0,0,22,5,0,31,0,0,22,5,0,31,0,0,22,5,0,21,10,0,15,12,0,30,1,0,21,6,0,30,1,0,21,6,0,0,31,0,0,22,0,0,31,0,0,22,0,22,9,0,16,10,0,30,1,0,21,6,0,11,17,3,10,12,3
2017-07-29T23:59:32Z,22,31,24,18,31,22,24,18,3,4,0,0,0,0,0,0,0,31,0,22,0,31,0,22,0,0,0,0,0,0,0,0,15,16,0,11,14,1,31,0,0,22,6,0,31,0,0,22,5,0,31,0,0,22,6,0,31,0,0,22,5,0,31,0,0,22,5,0,31,0,0,22,5,0,21,10,0,15,12,0,30,1,0,21,6,0,30,1,0,21,6,0,0,31,0,0,22,0,0,31,0,0,22,0,22,9,0,16,10,0,30,1,0,21,6,0,11,17,3,10,12,3
2017-07-30T23:59:33Z,21,30,24,18,30,21,23,17,2,3,0,0,0,0,0,0,0,30,0,21,0,30,0,21,0,0,0,0,0,0,0,0,14,16,0,10,14,1,30,0,0,21,6,0,30,0,0,21,5,0,29,1,0,20,7,0,30,0,0,21,5,0,30,0,0,21,5,0,30,0,0,21,5,0,20,10,0,14,12,0,29,1,0,20,6,0,29,1,0,20,6,0,0,30,0,0,21,0,0,30,0,0,21,0,21,9,0,15,10,0,29,1,0,20,6,0,10,17,3,9,12,3
2017-07-31T23:59:33Z,22,31,24,18,31,22,24,18,2,3,0,0,0,0,0,0,0,31,0,22,0,31,0,22,0,0,0,0,0,0,0,0,16,15,0,12,13,1,31,0,0,22,6,0,31,0,0,22,5,0,31,0,0,22,6,0,31,0,0,22,5,0,31,0,0,22,5,0,31,0,0,22,5,0,21,9,0,15,11,0,29,1,0,20,6,0,29,1,0,20,6,0,0,30,0,0,21,0,0,30,0,0,21,0,22,9,0,16,10,0,30,1,0,21,6,0,11,17,3,10,12,3
2017-08-01T23:59:32Z,24,35,28,20,35,24,27,19,2,3,0,0,0,0,0,0,0,35,0,24,0,35,0,24,0,0,0,0,0,0,0,0,16,19,0,12,15,1,35,0,0,24,6,0,35,0,0,24,5,0,34,1,0,23,7,0,35,0,0,24,5,0,35,0,0,24,5,0,35,0,0,24,5,0,22,13,0,16,13,0,34,1,0,23,6,0,34,1,0,23,6,0,0,35,0,0,24,0,0,35,0,0,24,0,23,12,0,17,11,0,34,1,0,23,6,0,14,18,3,11,13,3
2017-08-02T23:59:34Z,24,35,28,20,35,24,28,20,2,3,0,0,0,0,0,0,0,35,0,24,0,35,0,24,0,0,0,0,0,0,0,0,17,18,0,12,15,1,35,0,0,24,6,0,34,0,0,24,5,0,35,0,0,24,6,0,35,0,0,24,5,0,35,0,0,24,5,0,35,0,0,24,5,0,24,11,0,17,12,0,34,1,0,23,6,0,34,1,0,23,6,0,0,35,0,0,24,0,0,35,0,0,24,0,24,11,0,17,11,0,34,1,0,23,6,0,13,19,3,11,13,3
2017-08-03T23:59:32Z,23,34,27,19,34,23,27,19,2,3,0,0,0,0,0,0,0,34,0,23,0,34,0,23,0,0,0,0,0,0,0,0,17,17,0,12,14,1,34,0,0,23,6,0,33,0,0,23,5,0,34,0,0,23,6,0,34,0,0,23,5,0,34,0,0,23,5,0,34,0,0,23,5,0,23,11,0,16,12,0,33,1,0,22,6,0,33,1,0,22,6,0,0,34,0,0,23,0,0,34,0,0,23,0,23,11,0,16,11,0,33,1,0,22,6,0,13,18,3,11,12,3
2017-08-04T23:59:33Z,23,35,28,19,35,23,27,19,2,3,0,0,0,0,0,0,0,35,0,23,0,35,0,23,0,0,0,0,0,0,0,0,18,17,0,12,14,1,35,0,0,23,6,0,34,0,0,23,5,0,35,0,0,23,6,0,35,0,0,23,5,0,35,0,0,23,5,0,35,0,0,23,5,0,23,12,0,16,12,0,34,1,0,23,6,0,34,1,0,23,6,0,0,35,0,0,23,0,0,35,0,0,23,0,23,12,0,16,11,0,34,1,0,23,6,0,14,18,3,11,12,3
2017-08-05T23:59:35Z,23,35,28,19,35,23,27,19,2,3,0,0,0,0,0,0,0,35,0,23,0,35,0,23,0,0,0,0,0,0,0,0,18,17,0,12,14,1,35,0,0,23,6,0,34,0,0,23,5,0,35,0,0,23,6,0,35,0,0,23,5,0,35,0,0,23,5,0,35,0,0,23,5,0,23,12,0,16,12,0,34,1,0,23,6,0,34,1,0,23,6,0,0,35,0,0,23,0,0,35,0,0,23,0,23,12,0,16,11,0,34,1,0,23,6,0,14,18,3,11,12,3
2017-08-06T23:59:34Z,23,35,28,19,35,23,27,19,2,3,0,0,0,0,0,0,0,35,0,23,0,35,0,23,0,0,0,0,0,0,0,0,18,17,0,12,14,1,35,0,0,23,6,0,34,0,0,23,5,0,35,0,0,23,6,0,35,0,0,23,5,0,35,0,0,23,5,0,35,0,0,23,5,0,23,12,0,16,12,0,34,1,0,23,6,0,34,1,0,23,6,0,0,35,0,0,23,0,0,35,0,0,23,0,23,12,0,16,11,0,34,1,0,23,6,0,14,18,3,11,12,3
2017-08-07T23:59:33Z,23,34,27,19,34,23,27,19,2,3,0,0,0,0,0,0,0,34,0,23,0,34,0,23,0,0,0,0,0,0,0,0,18,16,0,12,14,1,34,0,0,23,6,0,33,0,0,23,5,0,34,0,0,23,6,0,34,0,0,23,5,0,34,0,0,23,5,0,34,0,0,23,5,0,22,12,0,16,12,0,33,1,0,23,6,0,33,1,0,23,6,0,0,34,0,0,23,0,0,34,0,0,23,0,22,12,0,16,11,0,33,1,0,23,6,0,14,17,3,11,12,3
2017-08-08T23:59:35Z,24,36,29,20,36,24,29,20,4,4,0,0,0,0,0,0,0,36,0,24,0,36,0,24,0,0,0,0,0,0,0,0,18,18,0,12,15,1,36,0,0,24,7,0,35,0,0,24,6,0,34,2,0,23,8,0,36,0,0,24,6,0,36,0,0,24,6,0,36,0,0,24,6,0,21,15,0,15,14,0,35,1,0,24,7,0,35,1,0,24,7,0,0,36,0,0,24,0,0,36,0,0,24,0,23,13,0,16,12,0,35,1,0,24,7,0,15,18,3,12,13,3
2017-08-09T23:59:33Z,24,35,28,20,35,24,25,18,3,4,0,0,0,0,0,0,1,34,1,23,0,35,0,24,0,0,0,0,0,0,0,0,18,17,0,12,15,1,35,0,0,24,7,0,34,0,0,24,6,0,34,1,0,23,8,0,35,0,0,24,6,0,35,0,0,24,6,0,35,0,0,24,6,0,21,14,0,15,14,0,34,1,0,24,7,0,34,1,0,24,7,0,0,35,0,0,24,0,0,35,0,0,24,0,22,13,0,16,12,0,34,1,0,24,7,0,15,17,3,12,13,3
2017-08-10T23:59:33Z,22,32,25,18,32,22,24,18,2,3,0,0,0,0,0,0,0,32,0,22,0,32,0,22,0,0,0,0,0,0,0,0,18,14,0,12,13,1,32,0,0,22,7,0,31,0,0,22,6,0,32,0,0,22,7,0,32,0,0,22,6,0,32,0,0,22,6,0,32,0,0,22,6,0,19,13,0,14,13,0,31,1,0,22,7,0,31,1,0,22,7,0,0,32,0,0,22,0,0,32,0,0,22,0,19,13,0,14,12,0,31,1,0,22,7,0,15,14,3,12,11,3
2017-08-11T23:59:35Z,22,32,25,18,32,22,24,18,2,3,0,0,0,0,0,0,0,32,0,22,0,32,0,22,0,0,0,0,0,0,0,0,18,14,0,12,13,1,32,0,0,22,7,0,31,0,0,22,6,0,32,0,0,22,7,0,32,0,0,22,6,0,32,0,0,22,6,0,32,0,0,22,6,0,19,13,0,14,13,0,31,1,0,22,7,0,31,1,0,22,7,0,0,32,0,0,22,0,0,32,0,0,22,0,19,13,0,14,12,0,31,1,0,22,7,0,15,14,3,12,11,3
2017-08-12T23:59:33Z,24,34,27,20,34,24,27,20,3,4,0,0,0,0,0,0,1,33,1,23,0,34,0,24,0,0,0,0,0,0,0,0,19,15,0,13,14,2,34,0,0,24,8,0,33,0,0,24,6,0,33,1,0,23,9,0,34,0,0,24,6,0,34,0,0,24,6,0,34,0,0,24,6,0,20,14,0,15,15,0,33,1,0,24,7,0,33,1,0,24,7,0,0,34,0,0,24,0,0,34,0,0,24,0,21,13,0,16,12,0,33,1,0,24,7,0,15,16,3,12,13,4
2017-08-13T23:59:34Z,23,33,26,19,33,23,26,19,3,4,0,0,0,0,0,0,0,33,0,23,0,33,0,23,0,0,0,0,0,0,0,0,19,14,0,13,13,2,33,0,0,23,8,0,32,0,0,23,6,0,33,0,0,23,8,0,33,0,0,23,6,0,33,0,0,23,6,0,33,0,0,23,6,0,20,13,0,15,14,0,32,1,0,23,7,0,32,1,0,23,7,0,0,33,0,0,23,0,0,33,0,0,23,0,20,13,0,15,12,0,32,1,0,23,7,0,15,15,3,12,12,4
2017-08-14T23:59:34Z,26,38,31,22,38,26,30,21,3,4,0,0,0,0,0,0,0,38,0,26,0,38,0,26,0,0,0,0,0,0,0,0,19,18,1,13,15,3,38,0,0,26,8,0,37,0,0,26,6,0,37,1,0,25,9,0,38,0,0,26,6,0,38,0,0,26,6,0,38,0,0,26,6,0,24,14,0,17,15,0,37,1,0,26,7,0,37,1,0,26,7,0,0,38,0,0,26,0,0,38,0,0,26,0,25,13,0,18,12,0,37,1,0,26,7,0,15,18,5,12,14,5
2017-08-15T23:59:34Z,27,39,32,23,39,27,31,22,4,5,0,0,0,0,0,0,0,39,0,27,0,39,0,27,0,0,0,0,0,0,0,0,20,19,0,14,17,2,39,0,0,27,9,0,38,0,0,27,7,0,39,0,0,27,9,0,39,0,0,27,7,0,39,0,0,27,7,0,39,0,0,27,7,0,25,14,0,18,16,0,38,1,0,27,8,0,38,1,0,27,8,0,0,39,0,0,27,0,0,39,0,0,27,0,26,13,0,19,13,0,38,1,0,27,8,0,15,19,5,12,15,5
2017-08-16T23:59:34Z,26,38,31,22,38,26,31,22,3,4,0,0,0,0,0,0,0,38,0,26,0,38,0,26,0,0,0,0,0,0,0,0,20,18,0,14,15,2,38,0,0,26,8,0,37,0,0,26,6,0,38,0,0,26,8,0,38,0,0,26,6,0,38,0,0,26,6,0,38,0,0,26,6,0,25,13,0,18,14,0,37,1,0,26,7,0,37,1,0,26,7,0,0,38,0,0,26,0,0,38,0,0,26,0,25,13,0,18,12,0,37,1,0,26,7,0,15,18,5,12,14,5
2017-08-17T23:59:35Z,26,38,31,22,38,26,31,22,3,5,0,0,0,0,0,0,0,38,0,26,0,38,0,26,0,0,0,0,0,0,0,0,20,18,0,14,15,2,38,0,0,26,8,0,38,0,0,26,6,0,38,0,0,26,8,0,38,0,0,26,6,0,38,0,0,26,6,0,38,0,0,26,6,0,25,13,0,18,14,0,37,1,0,26,7,0,37,1,0,26,7,0,0,38,0,0,26,0,0,38,0,0,26,0,25,13,0,18,12,0,37,1,0,26,7,0,15,18,5,12,14,5
2017-08-18T23:59:34Z,28,40,32,23,40,28,31,22,4,5,0,0,0,0,0,0,0,40,0,28,0,40,0,28,0,0,0,0,0,0,0,0,20,19,1,14,16,3,40,0,0,28,8,0,40,0,0,28,6,0,40,0,0,28,8,0,40,0,0,28,6,0,40,0,0,28,6,0,40,0,0,28,6,0,27,13,0,20,14,0,39,1,0,28,7,0,39,1,0,28,7,0,0,40,0,0,28,0,0,40,0,0,28,0,27,13,0,20,12,0,39,1,0,28,7,0,16,19,5,13,15,5
2017-08-19T23:59:35Z,27,39,31,22,39,27,31,22,3,4,0,0,0,0,0,0,0,39,0,27,0,39,0,27,0,0,0,0,0,0,0,0,20,19,0,14,16,2,39,0,0,27,8,0,39,0,0,27,6,0,39,0,0,27,8,0,39,0,0,27,6,0,39,0,0,27,6,0,39,0,0,27,6,0,26,13,0,19,14,0,38,1,0,27,7,0,38,1,0,27,7,0,0,39,0,0,27,0,0,39,0,0,27,0,26,13,0,19,12,0,38,1,0,27,7,0,15,19,5,12,15,5
2017-08-20T23:59:35Z,27,40,32,22,40,27,31,22,3,4,0,0,0,0,0,0,1,39,1,26,0,40,0,27,0,0,0,0,0,0,0,0,20,20,0,14,16,2,40,0,0,27,8,0,40,0,0,27,6,0,40,0,0,27,8,0,40,0,0,27,6,0,40,0,0,27,6,0,40,0,0,27,6,0,26,14,0,19,14,0,39,1,0,27,7,0,39,1,0,27,7,0,0,40,0,0,27,0,0,40,0,0,27,0,26,14,0,19,12,0,39,1,0,27,7,0,16,19,5,12,15,5
2017-08-21T23:59:34Z,26,37,29,21,37,26,27,20,3,4,0,0,0,0,0,0,0,37,0,26,0,37,0,26,0,0,0,0,0,0,0,0,17,20,0,12,17,2,37,0,0,26,7,0,37,0,0,26,5,0,36,1,0,25,8,0,37,0,0,26,5,0,37,0,0,26,5,0,37,0,0,26,5,0,23,14,0,17,15,0,36,1,0,26,6,0,36,1,0,26,6,0,0,37,0,0,26,0,0,37,0,0,26,0,24,13,0,18,12,0,36,1,0,26,6,0,15,17,5,12,13,5
2017-08-22T23:59:34Z,27,38,30,22,38,27,27,21,4,5,0,0,0,0,0,0,0,38,0,27,0,38,0,27,0,0,0,0,0,0,0,0,18,20,0,13,17,2,38,0,0,27,7,0,38,0,0,27,5,0,38,0,0,27,7,0,38,0,0,27,5,0,38,0,0,27,5,0,38,0,0,27,5,0,25,13,0,19,14,0,37,1,0,27,6,0,37,1,0,27,6,0,0,38,0,0,27,0,0,38,0,0,27,0,25,13,0,19,12,0,37,1,0,27,6,0,15,18,5,12,14,5
2017-08-23T23:59:59Z,27,37,29,22,37,27,27,21,4,4,0,0,0,0,0,0,0,37,0,27,0,37,0,27,0,0,0,0,0,0,0,0,17,20,0,13,17,1,37,0,0,27,6,0,37,0,0,27,5,0,36,1,0,26,7,0,37,0,0,27,5,0,37,0,0,27,5,0,37,0,0,27,5,0,23,14,0,18,14,0,36,1,0,27,6,0,36,1,0,27,6,0,0,37,0,0,27,0,0,37,0,0,27,0,24,13,0,19,12,0,36,1,0,27,6,0,14,18,5,12,14,4
2017-08-24T23:59:34Z,27,38,29,21,38,27,28,21,3,4,0,0,0,0,0,0,0,38,0,27,0,38,0,27,0,0,0,0,0,0,0,0,18,20,0,13,17,2,38,0,0,27,7,0,37,0,0,26,5,0,38,0,0,27,7,0,38,0,0,27,5,0,38,0,0,27,5,0,38,0,0,27,5,0,24,14,0,18,15,0,36,1,0,26,6,0,36,1,0,26,6,0,0,38,0,0,27,0,0,38,0,0,27,0,24,14,0,18,13,0,37,1,0,27,6,0,16,17,5,13,13,5
2017-08-25T23:59:34Z,28,40,31,22,40,28,29,21,3,4,0,0,0,0,0,0,0,40,0,28,0,40,0,28,0,0,0,0,0,0,0,0,18,22,0,13,18,2,40,0,0,28,7,0,40,0,0,28,5,0,39,1,0,27,8,0,40,0,0,28,5,0,40,0,0,28,5,0,40,0,0,28,5,0,25,15,0,18,16,0,38,1,0,27,6,0,38,1,0,27,6,0,0,40,0,0,28,0,0,40,0,0,28,0,26,14,0,19,13,0,39,1,0,28,6,0,16,19,5,13,14,5
2017-08-26T23:59:34Z,28,39,30,22,39,28,29,22,3,4,0,0,0,0,0,0,0,39,0,28,0,39,0,28,0,0,0,0,0,0,0,0,18,21,0,13,18,2,39,0,0,28,7,0,39,0,0,28,5,0,38,1,0,27,8,0,39,0,0,28,5,0,39,0,0,28,5,0,39,0,0,28,5,0,24,15,0,18,16,0,37,1,0,27,6,0,37,1,0,27,6,0,0,39,0,0,28,0,0,39,0,0,28,0,25,14,0,19,13,0,38,1,0,28,6,0,16,18,5,13,14,5
2017-08-27T23:59:35Z,27,38,29,21,38,27,28,21,3,4,0,0,0,0,0,0,0,38,0,27,0,38,0,27,0,0,0,0,0,0,0,0,18,20,0,13,17,2,38,0,0,27,7,0,38,0,0,27,5,0,38,0,0,27,7,0,38,0,0,27,5,0,38,0,0,27,5,0,38,0,0,27,5,0,24,14,0,18,15,0,36,1,0,26,6,0,36,1,0,26,6,0,0,38,0,0,27,0,0,38,0,0,27,0,24,14,0,18,13,0,37,1,0,27,6,0,16,17,5,13,13,5